Content
SEND FEEDBACK

Daily
Averages
Monthly
Summary
United States of America

DAYTONA BEACH, FLORIDA


Home > North America > United States > Florida
Elevation: 8 meters     Latitude: 29 11N     Longitude: 081 03W

WEATHER
 
SELECT A DAY
Number of Records: 195,502;   Date Range: 1/1/95 - 7/26/14
 
SHARE

PRINT THIS DATA

[ ← Previous Day ]
WEATHER ALMANAC - 31 JANUARY, 2013
[ Next Day → ]
[ °F ]   °C
Weather ElementAverageHighLow
Temperature13.7 °C21 °C (1:33 am)6.1 °C (11:53 pm)
Dewpoint4.9 °C18 °C (1:33 am)-3.3 °C (4:53 pm)
Humidity59.5 %94 % (1:59 am)25 % (4:53 pm)
Barometer1019 hPa1024.4 hPa (11:53 pm)1013.2 hPa (1:33 am)
Wind Speed15.3 km/h29.6 km/h (2:53 am)
Wind Gust48.1 km/h (2:53 am)
Weather ElementAverage
Visibility14.3 km
Wind DirectionWNW (281.4 °)

Weather ElementTotal
Precipitation---
Heating Degree Days4.8 (Base 18.3)
Growing Degree Days3.6 (Base 10)
Averaged from 28 records on 31 January, 2013
WEATHER CONDITIONS BREAKOUT
WIND DIRECTION BREAKOUT
WEATHER BY HOUR - 31 JANUARY, 2013
[ °F ]   °C
Local TimeTemperatureDewpointHumidityBarometerVisibilityWind DirectionWind SpeedGust SpeedPrecipitationEventsConditions
1:33 AM21 °C18 °C83 %1013.2 hPa16.1 kmSW (230°)16.7 km/h0 mmRainLight Rain
1:53 AM18.9 °C17.2 °C90 %1013.9 hPa6.4 kmWest (280°)22.2 km/h44.4 km/h0 mmRainRain
1:59 AM18 °C17 °C94 %1013.9 hPa8 kmWest (280°)27.8 km/h37 km/h0 mmRainLight Rain
2:25 AM16 °C14 °C88 %1014.6 hPa8 kmWest (280°)20.4 km/h38.9 km/h0 mmRainLight Rain
2:53 AM12.8 °C11.7 °C93 %1015.2 hPa8 kmWest (280°)29.6 km/h48.1 km/h0 mmRainLight Rain
3:12 AM12 °C9 °C82 %1015.2 hPa9.7 kmWest (270°)20.4 km/h33.3 km/h0 mmOvercast
3:32 AM12 °C9 °C82 %1015.6 hPa9.7 kmWest (260°)16.7 km/h0 mmOvercast
3:53 AM12.2 °C8.9 °C80 %1015.2 hPa12.9 kmWSW (250°)13 km/h0 mmOvercast
4:53 AM12.8 °C9.4 °C80 %1015.9 hPa16.1 kmWSW (250°)11.1 km/hOvercast
5:53 AM13.3 °C8.3 °C72 %1016.3 hPa16.1 kmWNW (290°)13 km/hOvercast
6:53 AM12.2 °C6.7 °C69 %1017.9 hPa16.1 kmWNW (290°)16.7 km/hScattered Clouds
7:53 AM11.7 °C6.7 °C71 %1019 hPa16.1 kmNW (310°)13 km/hScattered Clouds
8:53 AM12.8 °C6.7 °C67 %1019.6 hPa16.1 kmNW (310°)18.5 km/h33.3 km/hScattered Clouds
9:53 AM13.3 °C6.1 °C62 %1020.3 hPa16.1 kmWNW (290°)16.7 km/hPartly Cloudy
10:53 AM14.4 °C1.1 °C41 %1021 hPa16.1 kmNNW (330°)20.4 km/hScattered Clouds
11:53 AM14.4 °C1.7 °C42 %1021 hPa16.1 kmNW (320°)13 km/h27.8 km/hScattered Clouds
12:53 PM15.6 °C2.2 °C41 %1020.7 hPa16.1 kmWNW (290°)14.8 km/h25.9 km/hPartly Cloudy
1:53 PM17 °C1 °C34 %1020 hPa16.1 kmNW (310°)24.1 km/hPartly Cloudy
2:53 PM17 °C0 °C32 %1020.3 hPa16.1 kmNNW (330°)20.4 km/h29.6 km/hPartly Cloudy
3:53 PM17 °C-1 °C30 %1020.3 hPa16.1 kmWest (280°)14.8 km/hPartly Cloudy
4:53 PM16.7 °C-3.3 °C25 %1021 hPa16.1 kmWest (280°)13 km/hPartly Cloudy
5:53 PM14.4 °C-3.3 °C30 %1021 hPa16.1 kmWest (280°)9.3 km/hPartly Cloudy
6:53 PM12.8 °C-1.7 °C37 %1022 hPa16.1 kmNW (310°)7.4 km/hPartly Cloudy
7:53 PM11.1 °C-2.2 °C40 %1023 hPa16.1 kmNW (320°)11.1 km/hClear
8:53 PM10 °C-2.2 °C43 %1023.4 hPa16.1 kmNW (320°)9.3 km/hClear
9:53 PM9.4 °C-1.7 °C46 %1023.7 hPa16.1 kmNNW (330°)7.4 km/hClear
10:53 PM8.3 °C-1.7 °C50 %1024 hPa16.1 kmNW (310°)7.4 km/hClear
11:53 PM6.1 °C-0.6 °C62 %1024.4 hPa16.1 kmCalmClear
Hourly data recorded from KDAB, located 0 kilometers away from Daytona Beach, Florida







STORIES FROM OUR PARTNERS